Regional Weather Roundup
Issued by NWS

Home | Current Version | Previous Version | Text Only | Print | Product List | Glossary Off
Versions: 1 2 3 4 5 6 7 8 9 10 11 12 13 14 15 16 17 18 19 20 21 22 23 24 25 26 27 28 29 30 31 32 33 34 35 36 37 38 39 40 41 42 43 44 45 46 47 48 49 50

000
ASUS43 KDTX 290301
RWRMI
MICHIGAN HOURLY REGIONAL WEATHER ROUNDUP
NATIONAL WEATHER SERVICE DETROIT/PONTIAC MI
1100 PM EDT THU JUL 28 2016

NOTE: "FAIR" INDICATES FEW OR NO CLOUDS BELOW 12,000 FEET WITH NO
SIGNIFICANT WEATHER AND/OR OBSTRUCTION TO VISIBILITY.

MIZ047>049-052>055-059>063-066>070-074>076-081>083-290400-
SOUTHEAST LOWER MICHIGAN

CITY           SKY/WX    TMP DP  RH WIND       PRES   REMARKS
ADRIAN         CLOUDY    68  66  93 SW3       29.93R
ALMA           CLOUDY    71  66  83 N9        29.96R
ANN ARBOR      MOCLDY    66  64  93 S5        29.91F
BAD AXE        CLEAR     65  62  90 NE5       29.96S
CARO           CLOUDY    67  62  82 CALM      29.95S
DETROIT CITY   PTCLDY    74  60  61 NE13      29.92F
DETROIT        CLOUDY    76  60  57 E9        29.91F
FLINT          PTCLDY    76  61  59 NE8       29.94R
GROSSE ILE     CLOUDY    75  60  59 NE12      29.90F
HILLSDALE      CLOUDY    71  64  77 E3        29.94R
HOWELL         MOCLDY    73  61  65 NE7       29.95R

CITY           SKY/WX    TMP DP  RH WIND       PRES   REMARKS
JACKSON        MOCLDY    73  65  75 SE6       29.94R
LAMBERTVILLE   DRIZZLE   73  67  84 NW3       29.92S
LANSING        CLOUDY    70  63  78 NE6       29.95R
LAPEER         FAIR      69  60  74 NE5       29.95S
MASON          CLOUDY    71  65  82 CALM      29.94R
MONROE         LGT RAIN  75  67  77 E7        29.89F
PONTIAC        PTCLDY    73  60  63 NE8       29.93S
PORT HOPE        N/A     72  64  76 NE16      29.95S
TRI CITIES     PTCLDY    69  65  86 NE7       29.96R
MIDLAND        FAIR      69  63  80 NE3       29.96R
TROY           PTCLDY    76  56  50 NE10      29.94F
SAGINAW HB     PTCLDY    66  61  82 NE3       29.95R
$$
MIZ043>046-050>051-056>058-064>065-071>073-077>080-290400-
SOUTHWEST LOWER MICHIGAN

CITY           SKY/WX    TMP DP  RH WIND       PRES   REMARKS
BATTLE CREEK   PTCLDY    69  69 100 N7        29.95R
BENTON HARBOR  PTCLDY    70  64  81 NE3       29.92R
BIG RAPIDS     PTCLDY    68  68 100 NE3       29.96S
COLDWATER      CLOUDY    72  68  88 N3        29.94R
FREMONT        MOCLDY    66  66 100 NE5       29.95S
HOLLAND        PTCLDY    71  68  90 NE3       29.94R
GRAND RAPIDS   MOCLDY    69  64  84 E5        29.95R
IONIA          FAIR      70  60  68 NE3       29.96R
KALAMAZOO      PTCLDY    69  65  86 NE3       29.93R
LUDINGTON      CLOUDY    69  64  82 NE3       29.95S
MARSHALL       CLOUDY    73  67  80 CALM      29.94R
MOUNT PLEASANT MOCLDY    71  64  78 E6        29.96S
MUSKEGON       CLOUDY    69  65  86 E3        29.94S
SOUTH HAVEN    PTCLDY    67  66  97 CALM      29.93R
$$
MIZ016>042-290400-
NORTHERN LOWER MICHIGAN

CITY           SKY/WX    TMP DP  RH WIND       PRES   REMARKS
ALPENA         CLOUDY    63  58  83 CALM      29.99S
BEAVER ISLAND  MOCLDY    64  56  77 N3        30.03R
BELLAIRE       CLOUDY    67  57  71 CALM      29.99R
CADILLAC       CLOUDY    67  61  80 CALM      29.99R
CHARLEVOIX     CLOUDY    71  61  71 N14       30.03R
FRANKFORT      CLOUDY    72  59  63 N6        29.98R
GAYLORD        CLOUDY    69  53  56 NE6       30.01F
GRAYLING       MOCLDY    68  58  71 NE5       30.01R
HARBOR SPRINGS CLOUDY    68  55  62 N7        30.00S
HOUGHTON LAKE  CLOUDY    68  61  78 NE7       30.00R
MANISTEE       CLOUDY    72  61  68 NE5       29.96R
OSCODA         PTCLDY    67  57  70 N6        29.97S
PELLSTON       CLOUDY    66  55  67 N5        30.01S
ROGERS CITY    CLOUDY    68  57  69 NW6       30.01F
TRAVERSE CITY  CLOUDY    75  58  55 NE7       29.97R
$$
MIZ007>008-015-290400-
EASTERN UPPER MICHIGAN

CITY           SKY/WX    TMP DP  RH WIND       PRES   REMARKS
KINROSS        PTCLDY    62  57  83 N5        30.03R
MACKINAC ISLAN CLOUDY    64  55  73 N8        30.01F
S. S. MARIE    CLOUDY    61  58  90 CALM      30.02R
$$
MIZ004>006-011>014-085-290400-
CENTRAL UPPER MICHIGAN

CITY           SKY/WX    TMP DP  RH WIND       PRES   REMARKS
ESCANABA       PTCLDY    61  52  72 N5        30.03S
MENOMINEE        N/A    N/A N/A N/A N8        30.03
SAWYER-GWINN   PTCLDY    55  52  90 N3        30.08R
$$
MIZ001>003-009>011-084-290400-
WESTERN UPPER MICHIGAN

CITY           SKY/WX    TMP DP  RH WIND       PRES   REMARKS
IRON MOUNTAIN  PTCLDY    59  51  75 N3        30.05S
HOUGHTON       PTCLDY    52  49  89 NW5       30.08S
COPPER HARBOR    N/A     59  55  87 CALM      30.07S
IRONWOOD       CLOUDY    54  52  94 CALM      30.08R
$$

ABBREVIATIONS USED IN REMARKS
   TC - TEMPERATURE IN CELSIUS
  WCI - WIND CHILL INDEX
   HX - HEAT INDEX
  VSB - VISIBILITY




USA.gov is the U.S. government's official web portal to all federal, state and local government web resources and services.